Time,TemperatureF,DewpointF,PressureIn,WindDirection,WindDirectionDegrees,WindSpeedMPH,WindSpeedGustMPH,Humidity,HourlyPrecipIn,Conditions,Clouds,dailyrainin,SoftwareType,DateUTC
2013-08-09 00:02:00,67.0,-99.9,-100.00,SSE,166,0.0,1.0,-999,0.00,,,0.00,,2013-08-09 05:02:00,
2013-08-09 00:12:00,67.0,-99.9,-100.00,SSE,166,0.0,1.0,-999,0.00,,,0.00,,2013-08-09 05:12:00,
2013-08-09 00:22:00,67.0,-99.9,-100.00,SSE,166,0.0,1.0,-999,0.00,,,0.00,,2013-08-09 05:22:00,
2013-08-09 00:33:00,67.0,-99.9,-100.00,SSE,167,0.0,0.0,-999,0.00,,,0.00,,2013-08-09 05:33:00,
2013-08-09 00:43:00,67.0,-99.9,-100.00,SSE,167,0.0,0.0,-999,0.00,,,0.00,,2013-08-09 05:43:00,
2013-08-09 00:52:00,67.0,-99.9,-100.00,SSE,167,0.0,0.0,-999,0.00,,,0.00,,2013-08-09 05:52:00,
2013-08-09 01:01:00,65.0,-99.9,-100.00,SE,141,0.0,1.0,-999,0.00,,,-99.99,,2013-08-09 06:01:00,
2013-08-09 01:11:00,65.0,-99.9,-100.00,SE,141,0.0,1.0,-999,0.00,,,-99.99,,2013-08-09 06:11:00,
2013-08-09 01:22:00,65.0,-99.9,-100.00,SE,141,0.0,1.0,-999,0.00,,,-99.99,,2013-08-09 06:22:00,
2013-08-09 01:32:00,65.0,-99.9,-100.00,SE,142,0.0,0.0,-999,0.00,,,0.00,,2013-08-09 06:32:00,
2013-08-09 01:43:00,65.0,-99.9,-100.00,SE,142,0.0,0.0,-999,0.00,,,0.00,,2013-08-09 06:43:00,
2013-08-09 01:52:00,65.0,-99.9,-100.00,SE,142,0.0,0.0,-999,0.00,,,0.00,,2013-08-09 06:52:00,
2013-08-09 02:01:00,65.0,-99.9,-100.00,South,177,0.0,0.0,-999,0.00,,,-99.99,,2013-08-09 07:01:00,
2013-08-09 02:12:00,65.0,-99.9,-100.00,South,177,0.0,0.0,-999,0.00,,,-99.99,,2013-08-09 07:12:00,
2013-08-09 02:22:00,65.0,-99.9,-100.00,South,177,0.0,0.0,-999,0.00,,,-99.99,,2013-08-09 07:22:00,
2013-08-09 02:33:00,65.0,-99.9,-100.00,South,174,0.0,0.0,-999,0.00,,,0.00,,2013-08-09 07:33:00,
2013-08-09 02:43:00,65.0,-99.9,-100.00,South,174,0.0,0.0,-999,0.00,,,0.00,,2013-08-09 07:43:00,
2013-08-09 02:53:00,65.0,-99.9,-100.00,South,174,0.0,0.0,-999,0.00,,,0.00,,2013-08-09 07:53:00,
2013-08-09 03:12:00,65.0,-99.9,-100.00,SSE,151,0.0,3.0,-999,0.00,,,0.00,,2013-08-09 08:12:00,
2013-08-09 03:22:00,65.0,-99.9,-100.00,SSE,151,0.0,3.0,-999,0.00,,,0.00,,2013-08-09 08:22:00,
2013-08-09 03:32:00,64.0,-99.9,-100.00,SSE,167,0.0,0.0,-999,0.00,,,0.00,,2013-08-09 08:32:00,
2013-08-09 03:43:00,64.0,-99.9,-100.00,SSE,167,0.0,0.0,-999,0.00,,,0.00,,2013-08-09 08:43:00,
2013-08-09 03:53:00,64.0,-99.9,-100.00,SSE,167,0.0,0.0,-999,0.00,,,0.00,,2013-08-09 08:53:00,
2013-08-09 04:02:00,64.0,-99.9,-100.00,SSE,155,1.0,2.0,-999,0.00,,,0.00,,2013-08-09 09:02:00,
2013-08-09 04:12:00,64.0,-99.9,-100.00,SSE,155,1.0,2.0,-999,0.00,,,0.00,,2013-08-09 09:12:00,
2013-08-09 04:22:00,64.0,-99.9,-100.00,SSE,155,1.0,2.0,-999,0.00,,,0.00,,2013-08-09 09:22:00,
2013-08-09 04:32:00,64.0,-99.9,-100.00,SE,125,2.0,3.0,-999,0.00,,,0.00,,2013-08-09 09:32:00,
2013-08-09 04:43:00,64.0,-99.9,-100.00,SE,125,2.0,3.0,-999,0.00,,,0.00,,2013-08-09 09:43:00,
2013-08-09 04:52:00,64.0,-99.9,-100.00,SE,125,2.0,3.0,-999,0.00,,,0.00,,2013-08-09 09:52:00,
2013-08-09 05:01:00,65.0,-99.9,-100.00,West,275,0.0,0.0,-999,0.00,,,-99.99,,2013-08-09 10:01:00,
2013-08-09 05:12:00,65.0,-99.9,-100.00,West,275,0.0,0.0,-999,0.00,,,-99.99,,2013-08-09 10:12:00,
2013-08-09 05:22:00,65.0,-99.9,-100.00,West,275,0.0,0.0,-999,0.00,,,-99.99,,2013-08-09 10:22:00,
2013-08-09 05:32:00,63.0,-99.9,-100.00,SSE,168,0.0,0.0,-999,0.00,,,0.00,,2013-08-09 10:32:00,
2013-08-09 05:43:00,63.0,-99.9,-100.00,SSE,168,0.0,0.0,-999,0.00,,,0.00,,2013-08-09 10:43:00,
2013-08-09 05:53:00,63.0,-99.9,-100.00,SSE,168,0.0,0.0,-999,0.00,,,0.00,,2013-08-09 10:53:00,
2013-08-09 06:00:00,62.0,-99.9,-100.00,SSW,204,0.0,0.0,-999,0.00,,,0.00,,2013-08-09 11:00:00,
2013-08-09 06:11:00,63.0,-99.9,-100.00,SSE,168,0.0,0.0,-999,0.00,,,0.00,,2013-08-09 11:11:00,
2013-08-09 06:22:00,63.0,-99.9,-100.00,SSE,168,0.0,0.0,-999,0.00,,,0.00,,2013-08-09 11:22:00,
2013-08-09 06:33:00,62.0,-99.9,-100.00,SSW,204,0.0,0.0,-999,0.00,,,0.00,,2013-08-09 11:33:00,
2013-08-09 06:43:00,62.0,-99.9,-100.00,SSW,204,0.0,0.0,-999,0.00,,,0.00,,2013-08-09 11:43:00,
2013-08-09 06:53:00,62.0,-99.9,-100.00,SSW,204,0.0,0.0,-999,0.00,,,0.00,,2013-08-09 11:53:00,
2013-08-09 07:32:00,63.0,-99.9,-100.00,SSE,150,0.0,1.0,-999,0.00,,,0.00,,2013-08-09 12:32:00,
2013-08-09 07:43:00,63.0,-99.9,-100.00,SSE,150,0.0,1.0,-999,0.00,,,0.00,,2013-08-09 12:43:00,
2013-08-09 07:52:00,63.0,-99.9,-100.00,SSE,150,0.0,1.0,-999,0.00,,,0.00,,2013-08-09 12:52:00,
2013-08-09 08:12:00,65.0,-99.9,-100.00,SSE,164,0.0,0.0,-999,0.00,,,0.00,,2013-08-09 13:12:00,
2013-08-09 08:23:00,65.0,-99.9,-100.00,SSE,164,0.0,0.0,-999,0.00,,,0.00,,2013-08-09 13:23:00,
2013-08-09 08:32:00,67.0,-99.9,-100.00,South,173,0.0,0.0,-999,0.00,,,0.00,,2013-08-09 13:32:00,
2013-08-09 08:43:00,67.0,-99.9,-100.00,South,173,0.0,0.0,-999,0.00,,,0.00,,2013-08-09 13:43:00,
2013-08-09 08:53:00,67.0,-99.9,-100.00,South,173,0.0,0.0,-999,0.00,,,0.00,,2013-08-09 13:53:00,
2013-08-09 09:02:00,68.0,-99.9,-100.00,South,179,0.0,0.0,-999,0.00,,,0.00,,2013-08-09 14:02:00,
2013-08-09 09:11:00,68.0,-99.9,-100.00,South,179,0.0,0.0,-999,0.00,,,0.00,,2013-08-09 14:11:00,
2013-08-09 09:22:00,68.0,-99.9,-100.00,South,179,0.0,0.0,-999,0.00,,,0.00,,2013-08-09 14:22:00,
2013-08-09 09:30:00,74.0,-99.9,-100.00,SSW,210,0.0,0.0,-999,0.00,,,0.00,,2013-08-09 14:30:00,
2013-08-09 09:33:00,72.0,-99.9,-100.00,SSW,210,0.0,0.0,-999,0.00,,,0.00,,2013-08-09 14:33:00,
2013-08-09 09:43:00,72.0,-99.9,-100.00,SSW,210,0.0,0.0,-999,0.00,,,0.00,,2013-08-09 14:43:00,
2013-08-09 09:53:00,72.0,-99.9,-100.00,SSW,210,0.0,0.0,-999,0.00,,,0.00,,2013-08-09 14:53:00,
2013-08-09 10:12:00,74.0,-99.9,-100.00,SSW,210,0.0,0.0,-999,0.00,,,0.00,,2013-08-09 15:12:00,
2013-08-09 10:22:00,74.0,-99.9,-100.00,SSW,210,0.0,0.0,-999,0.00,,,0.00,,2013-08-09 15:22:00,
2013-08-09 11:11:00,76.0,-99.9,-100.00,South,186,0.0,0.0,-999,0.00,,,0.00,,2013-08-09 16:11:00,
2013-08-09 11:22:00,76.0,-99.9,-100.00,South,186,0.0,0.0,-999,0.00,,,0.00,,2013-08-09 16:22:00,
2013-08-09 11:43:00,78.0,-99.9,-100.00,SW,231,1.0,4.0,-999,0.00,,,0.00,,2013-08-09 16:43:00,
2013-08-09 11:53:00,78.0,-99.9,-100.00,SW,231,1.0,4.0,-999,0.00,,,0.00,,2013-08-09 16:53:00,
2013-08-09 12:11:00,78.0,-99.9,-100.00,SW,226,1.0,2.0,-999,0.00,,,-99.99,,2013-08-09 17:11:00,
2013-08-09 12:22:00,78.0,-99.9,-100.00,SW,226,1.0,2.0,-999,0.00,,,-99.99,,2013-08-09 17:22:00,
2013-08-09 12:33:00,79.0,-99.9,-100.00,SW,236,2.0,7.0,-999,0.00,,,0.00,,2013-08-09 17:33:00,
2013-08-09 12:43:00,79.0,-99.9,-100.00,SW,236,2.0,7.0,-999,0.00,,,0.00,,2013-08-09 17:43:00,
2013-08-09 12:52:00,79.0,-99.9,-100.00,SW,236,2.0,7.0,-999,0.00,,,0.00,,2013-08-09 17:52:00,
2013-08-09 13:02:00,79.0,-99.9,-100.00,WSW,248,3.0,6.0,-999,0.00,,,0.00,,2013-08-09 18:02:00,
2013-08-09 13:11:00,79.0,-99.9,-100.00,WSW,248,3.0,6.0,-999,0.00,,,0.00,,2013-08-09 18:11:00,
2013-08-09 13:22:00,79.0,-99.9,-100.00,WSW,248,3.0,6.0,-999,0.00,,,0.00,,2013-08-09 18:22:00,
2013-08-09 13:32:00,80.0,-99.9,-100.00,WSW,258,1.0,5.0,-999,0.00,,,0.00,,2013-08-09 18:32:00,
2013-08-09 13:43:00,80.0,-99.9,-100.00,WSW,258,1.0,5.0,-999,0.00,,,0.00,,2013-08-09 18:43:00,
2013-08-09 13:53:00,80.0,-99.9,-100.00,WSW,258,1.0,5.0,-999,0.00,,,0.00,,2013-08-09 18:53:00,
2013-08-09 14:11:00,80.0,-99.9,-100.00,WSW,255,3.0,5.0,-999,0.00,,,0.00,,2013-08-09 19:11:00,
2013-08-09 14:22:00,80.0,-99.9,-100.00,WSW,255,3.0,5.0,-999,0.00,,,0.00,,2013-08-09 19:22:00,
2013-08-09 14:32:00,81.0,-99.9,-100.00,SW,227,1.0,4.0,-999,0.00,,,0.00,,2013-08-09 19:32:00,
2013-08-09 14:43:00,81.0,-99.9,-100.00,SW,227,1.0,4.0,-999,0.00,,,0.00,,2013-08-09 19:43:00,
2013-08-09 14:52:00,81.0,-99.9,-100.00,SW,227,1.0,4.0,-999,0.00,,,0.00,,2013-08-09 19:52:00,
2013-08-09 15:11:00,81.0,-99.9,-100.00,WSW,241,3.0,7.0,-999,0.00,,,0.00,,2013-08-09 20:11:00,
2013-08-09 15:22:00,81.0,-99.9,-100.00,WSW,241,3.0,7.0,-999,0.00,,,0.00,,2013-08-09 20:22:00,
2013-08-09 15:32:00,80.0,-99.9,-100.00,West,263,3.0,5.0,-999,0.00,,,0.00,,2013-08-09 20:32:00,
2013-08-09 15:43:00,80.0,-99.9,-100.00,West,263,3.0,5.0,-999,0.00,,,0.00,,2013-08-09 20:43:00,
2013-08-09 15:52:00,80.0,-99.9,-100.00,West,263,3.0,5.0,-999,0.00,,,0.00,,2013-08-09 20:52:00,
2013-08-09 16:02:00,81.0,-99.9,-100.00,SW,234,2.0,5.0,-999,0.00,,,0.00,,2013-08-09 21:02:00,
2013-08-09 16:12:00,81.0,-99.9,-100.00,SW,234,2.0,5.0,-999,0.00,,,0.00,,2013-08-09 21:12:00,
2013-08-09 16:22:00,81.0,-99.9,-100.00,SW,234,2.0,5.0,-999,0.00,,,0.00,,2013-08-09 21:22:00,
2013-08-09 16:43:00,81.0,-99.9,-100.00,WSW,249,4.0,6.0,-999,0.00,,,0.00,,2013-08-09 21:43:00,
2013-08-09 16:53:00,81.0,-99.9,-100.00,WSW,249,4.0,6.0,-999,0.00,,,0.00,,2013-08-09 21:53:00,
2013-08-09 17:02:00,81.0,-99.9,-100.00,WSW,251,4.0,6.0,-999,0.00,,,0.00,,2013-08-09 22:02:00,
2013-08-09 17:11:00,81.0,-99.9,-100.00,WSW,251,4.0,6.0,-999,0.00,,,0.00,,2013-08-09 22:11:00,
2013-08-09 17:22:00,81.0,-99.9,-100.00,WSW,251,4.0,6.0,-999,0.00,,,0.00,,2013-08-09 22:22:00,
2013-08-09 17:32:00,78.0,-99.9,-100.00,NW,324,4.0,6.0,-999,0.00,,,0.00,,2013-08-09 22:32:00,
2013-08-09 17:43:00,78.0,-99.9,-100.00,NW,324,4.0,6.0,-999,0.00,,,0.00,,2013-08-09 22:43:00,
2013-08-09 17:52:00,78.0,-99.9,-100.00,NW,324,4.0,6.0,-999,0.00,,,0.00,,2013-08-09 22:52:00,
2013-08-09 18:11:00,79.0,-99.9,-100.00,WNW,300,2.0,4.0,-999,0.00,,,0.00,,2013-08-09 23:11:00,
2013-08-09 18:22:00,79.0,-99.9,-100.00,WNW,300,2.0,4.0,-999,0.00,,,0.00,,2013-08-09 23:22:00,
2013-08-09 18:32:00,79.0,-99.9,-100.00,WNW,287,3.0,5.0,-999,0.00,,,0.00,,2013-08-09 23:32:00,
2013-08-09 18:43:00,79.0,-99.9,-100.00,WNW,287,3.0,5.0,-999,0.00,,,0.00,,2013-08-09 23:43:00,
2013-08-09 18:52:00,79.0,-99.9,-100.00,WNW,287,3.0,5.0,-999,0.00,,,0.00,,2013-08-09 23:52:00,
2013-08-09 19:02:00,78.0,-99.9,-100.00,NW,312,4.0,7.0,-999,0.00,,,0.00,,2013-08-10 00:02:00,
2013-08-09 19:11:00,78.0,-99.9,-100.00,NW,312,4.0,7.0,-999,0.00,,,0.00,,2013-08-10 00:11:00,
2013-08-09 19:22:00,78.0,-99.9,-100.00,NW,312,4.0,7.0,-999,0.00,,,0.00,,2013-08-10 00:22:00,
2013-08-09 19:43:00,77.0,-99.9,-100.00,NW,324,5.0,7.0,-999,0.00,,,0.00,,2013-08-10 00:43:00,
2013-08-09 19:53:00,77.0,-99.9,-100.00,NW,324,5.0,7.0,-999,0.00,,,0.00,,2013-08-10 00:53:00,
2013-08-09 20:02:00,77.0,-99.9,-100.00,NW,324,6.0,8.0,-999,0.00,,,0.00,,2013-08-10 01:02:00,
2013-08-09 20:11:00,77.0,-99.9,-100.00,NW,324,6.0,8.0,-999,0.00,,,0.00,,2013-08-10 01:11:00,
2013-08-09 20:22:00,77.0,-99.9,-100.00,NW,324,6.0,8.0,-999,0.00,,,0.00,,2013-08-10 01:22:00,
2013-08-09 20:32:00,76.0,-99.9,-100.00,NW,311,4.0,6.0,-999,0.00,,,0.00,,2013-08-10 01:32:00,
2013-08-09 20:43:00,76.0,-99.9,-100.00,NW,311,4.0,6.0,-999,0.00,,,0.00,,2013-08-10 01:43:00,
2013-08-09 20:53:00,76.0,-99.9,-100.00,NW,311,4.0,6.0,-999,0.00,,,0.00,,2013-08-10 01:53:00,
2013-08-09 21:03:00,75.0,-99.9,-100.00,NW,320,4.0,6.0,-999,0.00,,,0.00,,2013-08-10 02:03:00,
2013-08-09 21:11:00,75.0,-99.9,-100.00,NW,320,4.0,6.0,-999,0.00,,,0.00,,2013-08-10 02:11:00,
2013-08-09 21:22:00,75.0,-99.9,-100.00,NW,320,4.0,6.0,-999,0.00,,,0.00,,2013-08-10 02:22:00,
2013-08-09 21:32:00,74.0,-99.9,-100.00,NW,323,4.0,6.0,-999,0.00,,,0.00,,2013-08-10 02:32:00,
2013-08-09 21:42:00,74.0,-99.9,-100.00,NW,323,4.0,6.0,-999,0.00,,,0.00,,2013-08-10 02:42:00,
2013-08-09 21:52:00,74.0,-99.9,-100.00,NW,323,4.0,6.0,-999,0.00,,,0.00,,2013-08-10 02:52:00,
2013-08-09 22:11:00,74.0,-99.9,-100.00,NW,324,5.0,7.0,-999,0.00,,,0.00,,2013-08-10 03:11:00,
2013-08-09 22:22:00,74.0,-99.9,-100.00,NW,324,5.0,7.0,-999,0.00,,,0.00,,2013-08-10 03:22:00,
2013-08-09 22:32:00,73.0,-99.9,-100.00,NW,325,4.0,5.0,-999,0.00,,,0.00,,2013-08-10 03:32:00,
2013-08-09 22:42:00,73.0,-99.9,-100.00,NW,325,4.0,5.0,-999,0.00,,,0.00,,2013-08-10 03:42:00,
2013-08-09 22:52:00,73.0,-99.9,-100.00,NW,325,4.0,5.0,-999,0.00,,,0.00,,2013-08-10 03:52:00,
2013-08-09 23:02:00,72.0,-99.9,-100.00,WNW,297,4.0,5.0,-999,0.00,,,0.00,,2013-08-10 04:02:00,
2013-08-09 23:12:00,72.0,-99.9,-100.00,WNW,297,4.0,5.0,-999,0.00,,,0.00,,2013-08-10 04:12:00,
2013-08-09 23:22:00,72.0,-99.9,-100.00,WNW,297,4.0,5.0,-999,0.00,,,0.00,,2013-08-10 04:22:00,
2013-08-09 23:32:00,71.0,-99.9,-100.00,WNW,300,4.0,6.0,-999,0.00,,,0.00,,2013-08-10 04:32:00,
2013-08-09 23:43:00,71.0,-99.9,-100.00,WNW,300,4.0,6.0,-999,0.00,,,0.00,,2013-08-10 04:43:00,
2013-08-09 23:53:00,71.0,-99.9,-100.00,WNW,300,4.0,6.0,-999,0.00,,,0.00,,2013-08-10 04:53:00,